TimeCST,TemperatureF,Dew PointF,Humidity,Sea Level PressureIn,VisibilityMPH,Wind Direction,Wind SpeedMPH,Gust SpeedMPH,PrecipitationIn,Events,Conditions,WindDirDegrees,DateUTC
12:15 AM,-2.2,-14.8,55,29.91,10.0,NW,15.0,20.7,N/A,,Overcast,320,2014-01-06 06:15:00
12:35 AM,-4.0,-14.8,60,29.91,10.0,NW,13.8,19.6,N/A,,Overcast,320,2014-01-06 06:35:00
12:55 AM,-4.0,-14.8,60,29.91,10.0,NW,16.1,20.7,N/A,,Overcast,320,2014-01-06 06:55:00
1:15 AM,-4.0,-14.8,60,29.90,10.0,NW,17.3,20.7,N/A,,Overcast,320,2014-01-06 07:15:00
1:35 AM,-4.0,-14.8,60,29.90,10.0,NW,17.3,21.9,N/A,,Overcast,320,2014-01-06 07:35:00
1:55 AM,-4.0,-14.8,60,29.90,10.0,NW,17.3,21.9,N/A,,Overcast,320,2014-01-06 07:55:00
2:15 AM,-5.8,-14.8,65,29.90,10.0,NW,16.1,21.9,N/A,,Overcast,320,2014-01-06 08:15:00
2:35 AM,-5.8,-14.8,65,29.90,10.0,NW,13.8,19.6,N/A,,Overcast,310,2014-01-06 08:35:00
2:55 AM,-5.8,-14.8,65,29.89,10.0,NW,15.0,23.0,N/A,,Overcast,320,2014-01-06 08:55:00
3:15 AM,-5.8,-14.8,65,29.89,10.0,NW,17.3,21.9,N/A,,Overcast,320,2014-01-06 09:15:00
3:35 AM,-5.8,-14.8,65,29.89,10.0,NW,16.1,21.9,N/A,,Overcast,320,2014-01-06 09:35:00
3:55 AM,-5.8,-14.8,65,29.89,10.0,NW,18.4,25.3,N/A,,Overcast,310,2014-01-06 09:55:00
4:15 AM,-5.8,-14.8,65,29.89,10.0,NW,16.1,25.3,N/A,,Overcast,320,2014-01-06 10:15:00
4:35 AM,-5.8,-14.8,65,29.89,10.0,WNW,17.3,25.3,N/A,,Overcast,300,2014-01-06 10:35:00
4:55 AM,-5.8,-14.8,65,29.90,6.0,WNW,16.1,24.2,N/A,,Overcast,300,2014-01-06 10:55:00
5:15 AM,-7.6,-14.8,71,29.90,2.0,NW,20.7,27.6,N/A,,Overcast,310,2014-01-06 11:15:00
5:35 AM,-7.6,-14.8,71,29.90,1.8,WNW,17.3,23.0,N/A,,Overcast,300,2014-01-06 11:35:00
5:55 AM,-7.6,-14.8,71,29.90,1.2,WNW,18.4,26.5,N/A,,Overcast,300,2014-01-06 11:55:00
6:15 AM,-7.6,-16.6,65,29.91,1.2,WNW,21.9,27.6,N/A,,Overcast,300,2014-01-06 12:15:00
6:35 AM,-9.4,-16.6,71,29.92,1.2,WNW,23.0,27.6,N/A,,Overcast,300,2014-01-06 12:35:00
6:55 AM,-9.4,-16.6,71,29.92,1.8,WNW,19.6,26.5,N/A,,Overcast,300,2014-01-06 12:55:00
7:15 AM,-9.4,-16.6,71,29.93,7.0,WNW,19.6,27.6,N/A,,Mostly Cloudy,300,2014-01-06 13:15:00
7:35 AM,-11.2,-18.4,70,29.93,10.0,WNW,18.4,27.6,N/A,,Overcast,300,2014-01-06 13:35:00
7:55 AM,-11.2,-22.0,59,29.94,10.0,WNW,18.4,25.3,N/A,,Overcast,300,2014-01-06 13:55:00
8:15 AM,-13.0,-23.8,59,29.95,10.0,WNW,18.4,23.0,N/A,,Partly Cloudy,300,2014-01-06 14:15:00
8:35 AM,-13.0,-23.8,59,29.95,10.0,WNW,16.1,26.5,N/A,,Clear,300,2014-01-06 14:35:00
8:55 AM,-14.8,-23.8,64,29.96,10.0,WNW,16.1,24.2,N/A,,Clear,290,2014-01-06 14:55:00
9:15 AM,-14.8,-23.8,64,29.96,10.0,WNW,19.6,24.2,N/A,,Clear,290,2014-01-06 15:15:00
9:35 AM,-14.8,-25.6,58,29.96,9.0,WNW,18.4,26.5,N/A,,Scattered Clouds,290,2014-01-06 15:35:00
9:55 AM,-14.8,-23.8,64,29.96,10.0,WNW,17.3,25.3,N/A,,Partly Cloudy,290,2014-01-06 15:55:00
10:15 AM,-14.8,-25.6,58,29.96,10.0,West,19.6,25.3,N/A,,Partly Cloudy,280,2014-01-06 16:15:00
10:35 AM,-13.0,-23.8,59,29.95,10.0,WNW,20.7,25.3,N/A,,Partly Cloudy,290,2014-01-06 16:35:00
10:55 AM,-13.0,-23.8,59,29.94,10.0,West,12.7,23.0,N/A,,Partly Cloudy,280,2014-01-06 16:55:00
11:15 AM,-11.2,-23.8,54,29.94,10.0,WNW,18.4,24.2,N/A,,Clear,290,2014-01-06 17:15:00
11:35 AM,-11.2,-22.0,59,29.93,10.0,WNW,17.3,25.3,N/A,,Clear,290,2014-01-06 17:35:00
11:55 AM,-11.2,-23.8,54,29.93,10.0,West,18.4,24.2,N/A,,Clear,280,2014-01-06 17:55:00
12:15 PM,-11.2,-23.8,54,29.93,10.0,West,15.0,19.6,N/A,,Clear,280,2014-01-06 18:15:00
12:35 PM,-11.2,-25.6,49,29.93,10.0,West,18.4,-,N/A,,Clear,270,2014-01-06 18:35:00
12:55 PM,-11.2,-25.6,49,29.93,10.0,West,18.4,23.0,N/A,,Clear,260,2014-01-06 18:55:00
1:15 PM,-11.2,-23.8,54,29.93,10.0,West,17.3,23.0,N/A,,Clear,270,2014-01-06 19:15:00
1:35 PM,-11.2,-23.8,54,29.93,10.0,West,17.3,25.3,N/A,,Partly Cloudy,270,2014-01-06 19:35:00
1:55 PM,-11.2,-23.8,54,29.93,10.0,West,18.4,26.5,N/A,,Partly Cloudy,270,2014-01-06 19:55:00
2:15 PM,-11.2,-23.8,54,29.93,10.0,West,17.3,26.5,N/A,,Partly Cloudy,270,2014-01-06 20:15:00
2:35 PM,-11.2,-25.6,49,29.94,10.0,West,18.4,24.2,N/A,,Clear,270,2014-01-06 20:35:00
2:55 PM,-11.2,-25.6,49,29.94,10.0,West,18.4,23.0,N/A,,Clear,270,2014-01-06 20:55:00
3:15 PM,-11.2,-25.6,49,29.95,10.0,West,15.0,21.9,N/A,,Clear,270,2014-01-06 21:15:00
3:35 PM,-11.2,-23.8,54,29.95,10.0,West,16.1,21.9,N/A,,Partly Cloudy,270,2014-01-06 21:35:00
3:55 PM,-13.0,-25.6,53,29.96,10.0,West,13.8,19.6,N/A,,Clear,260,2014-01-06 21:55:00
4:15 PM,-14.8,-25.6,58,29.97,10.0,West,13.8,21.9,N/A,,Clear,260,2014-01-06 22:15:00
4:35 PM,-14.8,-27.4,53,29.97,10.0,West,15.0,23.0,N/A,,Clear,260,2014-01-06 22:35:00
4:55 PM,-14.8,-27.4,53,29.97,10.0,West,13.8,21.9,N/A,,Clear,270,2014-01-06 22:55:00
5:15 PM,-14.8,-25.6,58,29.98,10.0,West,15.0,-,N/A,,Clear,270,2014-01-06 23:15:00
5:35 PM,-14.8,-25.6,58,29.99,10.0,West,12.7,20.7,N/A,,Clear,270,2014-01-06 23:35:00
5:55 PM,-14.8,-23.8,64,29.99,10.0,West,17.3,23.0,N/A,,Clear,270,2014-01-06 23:55:00
6:15 PM,-14.8,-25.6,58,30.00,10.0,West,16.1,-,N/A,,Clear,260,2014-01-07 00:15:00
6:35 PM,-14.8,-25.6,58,30.00,10.0,West,16.1,24.2,N/A,,Clear,260,2014-01-07 00:35:00
6:55 PM,-14.8,-25.6,58,30.00,10.0,West,16.1,23.0,N/A,,Clear,260,2014-01-07 00:55:00
7:15 PM,-16.6,-25.6,64,30.00,10.0,West,17.3,23.0,N/A,,Clear,260,2014-01-07 01:15:00
7:35 PM,-16.6,-25.6,64,30.00,10.0,West,13.8,23.0,N/A,,Clear,260,2014-01-07 01:35:00
7:55 PM,-16.6,-25.6,64,30.00,10.0,West,13.8,21.9,N/A,,Clear,260,2014-01-07 01:55:00
8:15 PM,-16.6,-25.6,64,30.00,10.0,West,15.0,23.0,N/A,,Partly Cloudy,260,2014-01-07 02:15:00
8:35 PM,-16.6,-25.6,64,30.00,10.0,West,13.8,-,N/A,,Scattered Clouds,260,2014-01-07 02:35:00
8:55 PM,-16.6,-25.6,64,29.99,10.0,West,15.0,19.6,N/A,,Partly Cloudy,260,2014-01-07 02:55:00
9:15 PM,-16.6,-25.6,64,29.99,10.0,West,15.0,-,N/A,,Mostly Cloudy,260,2014-01-07 03:15:00
9:35 PM,-16.6,-25.6,64,29.99,10.0,West,16.1,21.9,N/A,,Overcast,260,2014-01-07 03:35:00
9:55 PM,-16.6,-23.8,70,29.99,10.0,West,16.1,-,N/A,,Mostly Cloudy,260,2014-01-07 03:55:00
10:15 PM,-16.6,-25.6,64,29.99,10.0,West,15.0,-,N/A,,Overcast,260,2014-01-07 04:15:00
10:35 PM,-16.6,-23.8,70,29.98,10.0,West,13.8,23.0,N/A,,Overcast,260,2014-01-07 04:35:00
10:55 PM,-14.8,-23.8,64,29.99,10.0,West,15.0,20.7,N/A,,Overcast,260,2014-01-07 04:55:00
11:15 PM,-14.8,-23.8,64,29.99,10.0,West,15.0,21.9,N/A,,Overcast,270,2014-01-07 05:15:00
11:35 PM,-14.8,-23.8,64,29.99,8.0,West,13.8,19.6,N/A,,Overcast,270,2014-01-07 05:35:00
11:55 PM,-14.8,-25.6,58,29.99,10.0,West,18.4,23.0,N/A,,Overcast,270,2014-01-07 05:55:00